Hourly Weather Bolshie Yakentany

Today, 20 June, Sunday

Time Temperature Precipitation Wind Pressure Humidity
00:00 +19°C° 0 mm 2 mps 750 mmHg 88%
01:00 +19°C° 0 mm 2 mps 751 mmHg 89%
02:00 +18°C° 0 mm 2 mps 751 mmHg 90%
03:00 +18°C° 0 mm 2 mps 751 mmHg 90%
04:00 +19°C° 0 mm 2 mps 750 mmHg 90%
05:00 +19°C° 0 mm 2 mps 750 mmHg 91%
06:00 +21°C° 0 mm 2 mps 750 mmHg 85%
07:00 +24°C° 0 mm 3 mps 750 mmHg 79%
08:00 +25°C° 0 mm 3 mps 750 mmHg 74%
09:00 +27°C° 0 mm 3 mps 750 mmHg 70%
10:00 +28°C° 0 mm 4 mps 750 mmHg 65%
11:00 +29°C° 0 mm 4 mps 750 mmHg 61%
12:00 +29°C° 0 mm 4 mps 750 mmHg 59%
13:00 +30°C° 0 mm 4 mps 750 mmHg 58%
14:00 +30°C° 0 mm 4 mps 750 mmHg 56%
15:00 +30°C° 0.1 mm 4 mps 749 mmHg 58%
16:00 +30°C° 0.1 mm 4 mps 749 mmHg 60%
17:00 +29°C° 0.1 mm 4 mps 748 mmHg 62%
18:00 +28°C° 0.2 mm 3 mps 748 mmHg 69%
19:00 +26°C° 0.2 mm 3 mps 748 mmHg 76%
20:00 +25°C° 0.2 mm 2 mps 748 mmHg 82%
21:00 +24°C° 0 mm 2 mps 748 mmHg 85%
22:00 +23°C° 0 mm 2 mps 748 mmHg 88%
23:00 +21°C° 0 mm 2 mps 748 mmHg 91%

Tomorrow, 21 June, Monday

Time Temperature Precipitation Wind Pressure Humidity
00:00 +20°C° 0 mm 2 mps 748 mmHg 92%
01:00 +20°C° 0 mm 2 mps 748 mmHg 93%
02:00 +19°C° 0 mm 2 mps 748 mmHg 94%
03:00 +19°C° 0 mm 2 mps 748 mmHg 94%
04:00 +19°C° 0 mm 2 mps 748 mmHg 94%
05:00 +19°C° 0 mm 2 mps 748 mmHg 94%
06:00 +20°C° 0 mm 2 mps 748 mmHg 87%
07:00 +22°C° 0 mm 3 mps 748 mmHg 80%
08:00 +25°C° 0 mm 3 mps 748 mmHg 73%
09:00 +26°C° 0 mm 3 mps 748 mmHg 68%
10:00 +27°C° 0 mm 4 mps 748 mmHg 62%
11:00 +28°C° 0 mm 4 mps 748 mmHg 57%
12:00 +29°C° 0 mm 4 mps 747 mmHg 54%
13:00 +29°C° 0 mm 4 mps 747 mmHg 52%
14:00 +30°C° 0 mm 5 mps 747 mmHg 49%
15:00 +29°C° 0 mm 4 mps 747 mmHg 52%
16:00 +29°C° 0 mm 4 mps 746 mmHg 55%
17:00 +29°C° 0 mm 4 mps 746 mmHg 58%
18:00 +28°C° 0.1 mm 3 mps 746 mmHg 65%
19:00 +26°C° 0.1 mm 3 mps 746 mmHg 72%
20:00 +25°C° 0.1 mm 2 mps 746 mmHg 78%
21:00 +24°C° 0 mm 2 mps 746 mmHg 83%
22:00 +21°C° 0 mm 2 mps 746 mmHg 87%
23:00 +20°C° 0 mm 2 mps 746 mmHg 91%

Day after tomorrow, 22 June, Tuesday

Time Temperature Precipitation Wind Pressure Humidity
00:00 +20°C° 0 mm 2 mps 746 mmHg 92%
01:00 +20°C° 0 mm 2 mps 746 mmHg 93%
02:00 +19°C° 0 mm 2 mps 746 mmHg 94%
03:00 +20°C° 0 mm 2 mps 746 mmHg 94%
04:00 +20°C° 0 mm 2 mps 746 mmHg 94%
05:00 +20°C° 0 mm 2 mps 745 mmHg 93%
06:00 +22°C° 0.1 mm 3 mps 746 mmHg 89%
07:00 +24°C° 0.1 mm 3 mps 746 mmHg 84%
08:00 +25°C° 0.1 mm 4 mps 746 mmHg 79%
09:00 +26°C° 0.6 mm 4 mps 746 mmHg 76%
10:00 +27°C° 0.6 mm 4 mps 746 mmHg 72%
11:00 +28°C° 0.6 mm 4 mps 746 mmHg 69%
12:00 +29°C° 0.4 mm 4 mps 746 mmHg 68%
13:00 +29°C° 0.4 mm 4 mps 746 mmHg 66%
14:00 +30°C° 0.4 mm 4 mps 746 mmHg 64%
15:00 +29°C° 0.6 mm 3 mps 746 mmHg 66%
16:00 +29°C° 0.6 mm 3 mps 746 mmHg 67%
17:00 +29°C° 0.6 mm 2 mps 746 mmHg 69%
18:00 +28°C° 0.1 mm 2 mps 746 mmHg 73%
19:00 +27°C° 0.1 mm 2 mps 746 mmHg 77%
20:00 +25°C° 0.1 mm 1 mps 746 mmHg 81%
21:00 +25°C° 0.1 mm 1 mps 746 mmHg 83%
22:00 +24°C° 0.1 mm 1 mps 747 mmHg 85%
23:00 +23°C° 0.1 mm 1 mps 747 mmHg 88%

23 June, Wednesday

Time Temperature Precipitation Wind Pressure Humidity
00:00 +23°C° 0.3 mm 2 mps 747 mmHg 89%
01:00 +21°C° 0.3 mm 2 mps 747 mmHg 90%
02:00 +21°C° 0.3 mm 2 mps 747 mmHg 92%
03:00 +21°C° 0.4 mm 2 mps 747 mmHg 93%
04:00 +21°C° 0.4 mm 2 mps 747 mmHg 93%
05:00 +21°C° 0.4 mm 2 mps 747 mmHg 94%
06:00 +23°C° 0.3 mm 2 mps 747 mmHg 90%
07:00 +24°C° 0.3 mm 3 mps 748 mmHg 86%
08:00 +25°C° 0.3 mm 3 mps 748 mmHg 82%
09:00 +27°C° 0.1 mm 3 mps 748 mmHg 76%
10:00 +28°C° 0.1 mm 4 mps 748 mmHg 71%
11:00 +29°C° 0.1 mm 4 mps 748 mmHg 65%
12:00 +30°C° 0.3 mm 3 mps 748 mmHg 62%
13:00 +31°C° 0.3 mm 3 mps 748 mmHg 59%
14:00 +31°C° 0.3 mm 3 mps 748 mmHg 57%
15:00 +31°C° 0 mm 3 mps 748 mmHg 57%
16:00 +31°C° 0 mm 3 mps 748 mmHg 58%
17:00 +31°C° 0 mm 3 mps 748 mmHg 58%
18:00 +29°C° 0 mm 2 mps 748 mmHg 64%
19:00 +28°C° 0 mm 2 mps 748 mmHg 70%
20:00 +26°C° 0 mm 1 mps 748 mmHg 76%
21:00 +25°C° 0.2 mm 1 mps 748 mmHg 79%
22:00 +25°C° 0.2 mm 1 mps 748 mmHg 81%
23:00 +24°C° 0.2 mm 1 mps 748 mmHg 83%

24 June, Thursday

Time Temperature Precipitation Wind Pressure Humidity
00:00 +23°C° 0.6 mm 1 mps 748 mmHg 86%
01:00 +23°C° 0.6 mm 1 mps 748 mmHg 88%
02:00 +22°C° 0.6 mm 1 mps 748 mmHg 90%
03:00 +22°C° 0 mm 1 mps 748 mmHg 91%
04:00 +23°C° 0 mm 1 mps 748 mmHg 92%
05:00 +23°C° 0 mm 2 mps 748 mmHg 93%
06:00 +24°C° 0.1 mm 2 mps 748 mmHg 89%
07:00 +25°C° 0.1 mm 2 mps 748 mmHg 86%
08:00 +26°C° 0.1 mm 2 mps 748 mmHg 82%
09:00 +27°C° 0.2 mm 3 mps 748 mmHg 78%
10:00 +28°C° 0.2 mm 3 mps 748 mmHg 73%
11:00 +30°C° 0.2 mm 3 mps 748 mmHg 69%
12:00 +30°C° 0.7 mm 3 mps 748 mmHg 69%
13:00 +30°C° 0.7 mm 3 mps 748 mmHg 70%
14:00 +30°C° 0.7 mm 3 mps 748 mmHg 71%
15:00 +30°C° 0.3 mm 3 mps 748 mmHg 72%
16:00 +29°C° 0.3 mm 3 mps 748 mmHg 74%
17:00 +29°C° 0.3 mm 2 mps 748 mmHg 76%
18:00 +28°C° 0.4 mm 2 mps 747 mmHg 79%
19:00 +27°C° 0.4 mm 2 mps 747 mmHg 82%
20:00 +26°C° 0.4 mm 1 mps 747 mmHg 85%
21:00 +25°C° 0.1 mm 1 mps 747 mmHg 87%
22:00 +24°C° 0.1 mm 2 mps 747 mmHg 89%
23:00 +23°C° 0.1 mm 2 mps 746 mmHg 91%

25 June, Friday

Time Temperature Precipitation Wind Pressure Humidity
00:00 +23°C° 0.6 mm 2 mps 746 mmHg 91%
01:00 +22°C° 0.6 mm 1 mps 746 mmHg 92%
02:00 +22°C° 0.6 mm 1 mps 746 mmHg 92%
03:00 +22°C° 0.4 mm 1 mps 746 mmHg 93%
04:00 +22°C° 0.4 mm 1 mps 745 mmHg 94%
05:00 +22°C° 0.4 mm 1 mps 745 mmHg 94%
06:00 +23°C° 0 mm 2 mps 745 mmHg 90%
07:00 +24°C° 0 mm 2 mps 745 mmHg 85%
08:00 +25°C° 0 mm 3 mps 745 mmHg 81%
09:00 +26°C° 0 mm 3 mps 745 mmHg 75%
10:00 +27°C° 0 mm 3 mps 745 mmHg 70%
11:00 +28°C° 0 mm 3 mps 745 mmHg 64%
12:00 +29°C° 0.9 mm 3 mps 745 mmHg 65%
13:00 +29°C° 0.9 mm 3 mps 745 mmHg 65%
14:00 +29°C° 0.9 mm 3 mps 745 mmHg 65%
15:00 +28°C° 0.7 mm 3 mps 745 mmHg 69%
16:00 +28°C° 0.7 mm 4 mps 745 mmHg 73%
17:00 +27°C° 0.7 mm 4 mps 745 mmHg 76%
18:00 +25°C° 0.3 mm 4 mps 745 mmHg 82%
19:00 +23°C° 0.3 mm 4 mps 745 mmHg 88%
20:00 +22°C° 0.3 mm 3 mps 745 mmHg 93%
21:00 +21°C° 0 mm 3 mps 746 mmHg 94%
22:00 +20°C° 0 mm 2 mps 746 mmHg 95%
23:00 +19°C° 0 mm 2 mps 746 mmHg 96%
Show more